{"data":{"norad_id":61664,"epoch":"2026-09-21T08:45:37.505952Z","epoch_age_seconds":117249,"freshness":"FRESH","line1":"1 61664U 24193D   26264.36501743  .00000331  00000+0  22422-4 0  9993","line2":"2 61664  53.1598 260.8271 0001417  81.2065 278.9097 15.31703895106503","mean_motion":15.31703895,"eccentricity":0.0001417,"inclination_deg":53.1598,"raan_deg":260.8271,"arg_perigee_deg":81.2065,"mean_anomaly_deg":278.9097,"bstar":2.2422e-5,"rev_number":10650,"period_min":94.012948893102,"perigee_km":469.75790023295,"apogee_km":471.69886868291,"semimajor_km":6848.8653844579,"source":"CELESTRAK","updated_at":"2026-09-22T09:00:49.400401Z"}}